Weather History for Kansas City, MO

Change the Weather History Date:

Monday, February 18, 2013

  Actual Average Record
Temperature  
Mean Temperature 44 °F -  
Max Temperature 57 °F 44 °F 66 °F (1997)
Min Temperature 28 °F 28 °F 3 °F (2006)
Degree Days  
Heating Degree Days 22    
Moisture  
Dew Point 31 °F    
Average Humidity 61    
Maximum Humidity 81    
Minimum Humidity 36    
Precipitation  
Precipitation 0.03 in - - ()
Sea Level Pressure  
Sea Level Pressure 29.71 in    
Wind  
Wind Speed 16 mph (WNW)    
Max Wind Speed 21 mph    
Max Gust Speed 37 mph    
Visibility 9 miles    
Events Rain , Snow    
Averages and records for this station are not official NWS values.
T = Trace of Precipitation, MM = Missing Value Source: NWS Daily Summary

Daily Weather History Graph

Daily Weather History Graph

Search for Another Location

Airport:

Trip Planner

Search our weather history database for the weather conditions in past years. The results will help you decide how hot, cold, wet, or windy it might be!

Date:

Astronomy

Feb. 18, 2013 Rise Set
Actual Time 7:05 AM CST 5:59 PM CST
Civil Twilight 6:38 AM CST 6:26 PM CST
Nautical Twilight 6:07 AM CST 6:57 PM CST
Astronomical Twilight 5:36 AM CST 7:28 PM CST
Moon 11:47 AM CST (2/18) 1:45 AM CST (2/18)
Length of Visible Light 11h 47m
Length of Day
10h 53m
First Quarter, 58% of the Moon is Illuminated
Feb 18
First Quarter
Feb 25
Full
Mar 4
Last Quarter
Mar 11
New
Mar 19
First Quarter

Hourly Weather History & Observations

Time (CST) Temp. Windchill Dew Point Humidity Pressure Visibility Wind Dir Wind Speed Gust Speed Precip Events Conditions
12:54 AM 55.9 °F - 28.9 °F 36% 29.65 in 10.0 mi South 19.6 mph 28.8 mph N/A   Clear
1:54 AM 55.0 °F - 30.0 °F 38% 29.62 in 10.0 mi South 15.0 mph 24.2 mph N/A   Clear
2:54 AM 54.0 °F - 30.0 °F 40% 29.58 in 10.0 mi South 12.7 mph - N/A   Clear
3:54 AM 55.0 °F - 32.0 °F 42% 29.55 in 10.0 mi South 13.8 mph 23.0 mph N/A   Clear
4:54 AM 54.0 °F - 33.1 °F 45% 29.55 in 10.0 mi South 13.8 mph 21.9 mph N/A   Clear
5:54 AM 55.0 °F - 37.0 °F 51% 29.55 in 10.0 mi South 13.8 mph 25.3 mph N/A   Clear
6:54 AM 55.0 °F - 39.9 °F 57% 29.55 in 10.0 mi SSW 20.7 mph 33.4 mph N/A   Partly Cloudy
7:54 AM 55.0 °F - 42.1 °F 62% 29.56 in 10.0 mi SSW 18.4 mph 28.8 mph N/A   Overcast
8:54 AM 57.0 °F - 43.0 °F 59% 29.56 in 10.0 mi SSW 17.3 mph 26.5 mph N/A   Overcast
9:54 AM 57.0 °F - 44.1 °F 62% 29.55 in 10.0 mi SSW 13.8 mph 20.7 mph N/A   Mostly Cloudy
10:54 AM 53.1 °F - 46.9 °F 80% 29.56 in 9.0 mi SSW 9.2 mph - 0.00 in   Overcast
11:27 AM 46.4 °F 39.8 °F 39.2 °F 76% 29.59 in 3.0 mi WNW 16.1 mph 23.0 mph 0.00 in Rain Light Rain
11:30 AM 46.4 °F 39.5 °F 37.4 °F 71% 29.59 in 1.8 mi NW 17.3 mph - 0.02 in Rain Rain
11:37 AM 44.6 °F 37.4 °F 37.4 °F 76% 29.60 in 1.5 mi NNW 16.1 mph 24.2 mph 0.03 in Rain Light Rain
11:41 AM 42.8 °F 35.4 °F 35.6 °F 76% 29.60 in 3.0 mi NNW 15.0 mph 24.2 mph 0.03 in Rain Light Rain
11:54 AM 42.1 °F 33.9 °F 36.0 °F 79% 29.61 in 4.0 mi NW 17.3 mph 21.9 mph 0.03 in Rain Light Rain
12:35 PM 41.0 °F 34.3 °F 35.6 °F 81% 29.64 in 5.0 mi NNW 11.5 mph 20.7 mph 0.00 in Rain Light Rain
12:54 PM 41.0 °F 33.1 °F 35.1 °F 79% 29.64 in 10.0 mi NNW 15.0 mph 25.3 mph 0.00 in   Overcast
1:54 PM 42.1 °F 34.5 °F 33.1 °F 70% 29.66 in 10.0 mi NNW 15.0 mph 29.9 mph 0.00 in   Overcast
2:40 PM 44.6 °F 36.9 °F 32.0 °F 61% 29.67 in 10.0 mi NNW 18.4 mph 28.8 mph N/A   Overcast
2:54 PM 43.0 °F 34.2 °F 32.0 °F 65% 29.68 in 10.0 mi NW 20.7 mph 34.5 mph N/A   Overcast
3:11 PM 39.2 °F 29.3 °F 30.2 °F 70% 29.72 in 10.0 mi NNW 20.7 mph 36.8 mph N/A   Overcast
3:54 PM 37.9 °F 29.6 °F 28.0 °F 68% 29.78 in 9.0 mi NW 13.8 mph 29.9 mph 0.00 in Snow Light Snow
4:54 PM 37.0 °F 28.9 °F 24.1 °F 59% 29.82 in 9.0 mi NNW 12.7 mph 28.8 mph 0.00 in Snow Light Snow
5:54 PM 36.0 °F 26.3 °F 21.9 °F 57% 29.88 in 10.0 mi NW 16.1 mph 26.5 mph 0.00 in   Mostly Cloudy
6:01 PM 35.6 °F 25.9 °F 21.2 °F 56% 29.88 in 10.0 mi NW 16.1 mph 25.3 mph N/A   Mostly Cloudy
6:54 PM 34.0 °F 25.5 °F 19.9 °F 56% 29.94 in 10.0 mi NW 11.5 mph 20.7 mph 0.00 in   Clear
7:54 PM 32.0 °F 22.5 °F 18.0 °F 56% 29.99 in 10.0 mi NW 12.7 mph 19.6 mph N/A   Clear
8:54 PM 30.9 °F 21.7 °F 17.1 °F 57% 30.01 in 10.0 mi NW 11.5 mph 18.4 mph N/A   Clear
9:54 PM 30.9 °F 20.7 °F 16.0 °F 54% 30.04 in 10.0 mi NW 13.8 mph 21.9 mph N/A   Clear
10:54 PM 30.0 °F 19.1 °F 16.0 °F 56% 30.07 in 10.0 mi WNW 15.0 mph 23.0 mph N/A   Clear
11:54 PM 28.9 °F 21.1 °F 16.0 °F 58% 30.10 in 10.0 mi WNW 8.1 mph - N/A   Clear